Location: Unspecified
(43.3830°N, 0.0000°E)
Time: 09:13:33
(UTC+00:00)

N. Korean satellite - Pass Details

Date: 04 December 2020
Orbit: 453 x 502 km, 97.2° (Epoch: 16 January)

Event Time Altitude Azimuth Distance (km) Brightness Sun altitude
Rises 04:23:59 0° 33° (NNE) 2,577 10.6 -30.5°
Reaches altitude 10° 04:27:05 10° 63° (ENE) 1,698 10.0 -30.0°
Maximum altitude 04:28:47 13° 91° (E) 1,533 9.9 -29.6°
Drops below altitude 10° 04:30:28 10° 119° (ESE) 1,700 10.1 -29.3°
Sets 04:33:35 0° 148° (SSE) 2,582 10.7 -28.8°
